Del Bajio, Mexico

2:44 PM CDT on June 27, 2017 (GMT -0500)
De Guanajuato International

Weather History for MMLO - October, 2014

Change the Weather History Date:

Thursday, October 2, 2014

  Actual Average Record
Temperature  
Mean Temperature 69 °F -  
Max Temperature 78 °F 79 °F 89 °F (2005)
Min Temperature 59 °F 55 °F 44 °F (2008)
Cooling Degree Days 4    
Growing Degree Days 19 (Base 50)    
Moisture  
Dew Point 60 °F    
Average Humidity 78    
Maximum Humidity 100    
Minimum Humidity 50    
Precipitation  
Precipitation 0.00 in - - ()
Sea Level Pressure  
Sea Level Pressure 30.10 in    
Wind  
Wind Speed 2 mph ()    
Max Wind Speed 9 mph    
Max Gust Speed -    
Visibility 7.2 miles    
Events Rain , Thunderstorm    
Averages and records for this station are not official NWS values.
T = Trace of Precipitation, MM = Missing Value Source: Averaged Metar Reports

Daily Weather History Graph

Daily Weather History Graph

Search for Another Location

Airport or City:

Trip Planner

Search our weather history database for the weather conditions in past years. The results will help you decide how hot, cold, wet, or windy it might be!

Date:

Astronomy

Oct. 02, 2014 Rise Set
Actual Time 7:37 AM CDT 7:32 PM CDT
Civil Twilight 7:15 AM CDT 7:54 PM CDT
Nautical Twilight 6:49 AM CDT 8:20 PM CDT
Astronomical Twilight 6:23 AM CDT 8:46 PM CDT
Moon 3:02 PM CDT (10/2) 1:37 AM CDT (10/2)
Length of Visible Light 12h 39m
Length of Day
11h 55m
First Quarter, 60% of the Moon is Illuminated
Oct 2
First Quarter
Oct 8
Full
Oct 15
Last Quarter
Oct 23
New
Oct 30
First Quarter

Hourly Weather History & Observations

Time (CDT) Temp. Dew Point Humidity Pressure Visibility Wind Dir Wind Speed Gust Speed Precip Events Conditions
12:50 AM 60.8 °F 59.0 °F 94% 29.81 in 8.0 mi Calm Calm - N/A   Overcast
1:50 AM 60.8 °F 59.0 °F 94% 30.21 in 8.0 mi Calm Calm - N/A   Overcast
2:44 AM 60.8 °F 59.0 °F 94% 30.20 in 5.0 mi Calm Calm - N/A   Overcast
5:45 AM 60.8 °F 59.0 °F 94% 30.19 in 5.0 mi Calm Calm - N/A   Mostly Cloudy
7:50 AM 60.8 °F 59.0 °F 94% 30.21 in 6.0 mi Calm Calm - N/A   Overcast
8:41 AM 62.6 °F 60.8 °F 94% 30.23 in 6.0 mi Calm Calm - N/A   Mostly Cloudy
9:47 AM 66.2 °F 60.8 °F 83% 29.90 in 6.0 mi Calm Calm - N/A   Overcast
10:45 AM 68.0 °F 60.8 °F 78% 30.28 in 5.0 mi Calm Calm - N/A   Mostly Cloudy
11:40 AM 69.8 °F 62.6 °F 78% 30.27 in 6.0 mi Calm Calm - N/A   Mostly Cloudy
12:44 PM 69.8 °F 60.8 °F 73% 29.87 in 5.0 mi Calm Calm - N/A   Mostly Cloudy
1:41 PM 73.4 °F 59.0 °F 61% 30.22 in 8.0 mi NE 8.1 mph - N/A   Mostly Cloudy
2:52 PM 77.0 °F 59.0 °F 54% 30.18 in 10.0 mi SSE 6.9 mph - N/A   Mostly Cloudy
3:41 PM 78.8 °F 59.0 °F 51% 29.74 in 10.0 mi SSE 6.9 mph - N/A   Mostly Cloudy
5:55 PM 73.4 °F 57.2 °F 57% 30.13 in 10.0 mi ESE 3.5 mph - N/A   Scattered Clouds
6:51 PM 77.0 °F 57.2 °F 50% 29.73 in 10.0 mi SSE 5.8 mph - N/A   Mostly Cloudy
7:46 PM 75.2 °F 59.0 °F 57% 30.15 in 8.0 mi South 3.5 mph - N/A   Mostly Cloudy
8:48 PM 71.6 °F 60.8 °F 69% 30.19 in 8.0 mi NE 4.6 mph - N/A Thunderstorm Thunderstorm
9:44 PM 62.6 °F 60.8 °F 94% 29.87 in 6.0 mi NNE 6.9 mph - N/A Rain Rain
10:45 PM 60.8 °F 59.0 °F 94% 30.29 in 6.0 mi East 9.2 mph - N/A Rain Rain
11:43 PM 59.0 °F 59.0 °F 100% 30.30 in 8.0 mi Calm Calm - N/A   Overcast